Regional Weather Roundup
Issued by NWS

Home | Current Version | Previous Version | Text Only | Print | Product List | Glossary On
Versions: 1 2 3 4 5 6 7 8 9 10 11 12 13 14 15 16 17 18 19 20 21 22 23 24 25 26 27 28 29 30 31 32 33 34 35 36 37 38 39 40 41 42 43 44 45 46 47 48 49 50
000
ASUS44 KMEG 030900
RWRTN
TENNESSEE HOURLY STATE WEATHER ROUNDUP
NATIONAL WEATHER SERVICE MEMPHIS TN
400 AM CDT FRI JUL 03 2015

TNZ002-004-019-021-049-052-054-088>092-031000-
WEST TENNESSEE

CITY           SKY/WX    TMP DP  RH WIND       PRES   REMARKS
MEMPHIS INTL   CLOUDY    74  69  85 SW5       29.87S
NWS MEMPHIS      N/A     72 N/A N/A MISG        N/A
JACKSON        CLOUDY    71  68  90 SW9       29.87R
DYERSBURG        N/A    N/A N/A N/A MISG        N/A
PARIS          PTCLDY    70  68  94 S5        29.86S
LEXINGTON      MOCLDY    70  68  94 S3        29.87R
$$

TNZ008-025-027-028-033-062-065-066-031000-
NORTH MIDDLE TENNESSEE

CITY           SKY/WX    TMP DP  RH WIND       PRES   REMARKS
NASHVILLE      CLOUDY    73  73 100 SW6       29.86S
CLARKSVILLE    CLOUDY    72  70  93 SW8       29.83S
COOKEVILLE     CLOUDY    73  73 100 N16       29.87F SQUALL
CROSSVILLE     CLOUDY    70  67  90 CALM      29.94S
$$

TNZ061-075-076-078-094-096-097-031000-
SOUTH MIDDLE TENNESSEE

CITY           SKY/WX    TMP DP  RH WIND       PRES   REMARKS
FAYETTEVILLE   PTCLDY    70  66  88 W3        29.90R
TULLAHOMA      PTCLDY    72  70  94 CALM      29.91R
WINCHESTER     CLEAR     73  72  94 W6        29.90S
SHELBYVILLE    MOCLDY   N/A N/A N/A MISG        N/A
$$

TNZ017-018-042-046-047-031000-
NORTHEAST TENNESSEE

CITY           SKY/WX    TMP DP  RH WIND       PRES   REMARKS
TRI CITIES     LGT RAIN  67  67 100 CALM      29.92F FOG
ELIZABETHTON   LGT RAIN  64  64 100 NE3       29.94S
$$

TNZ012-013-036-069-073-074-031000-
CENTRAL EAST TENNESSEE

CITY           SKY/WX    TMP DP  RH WIND       PRES   REMARKS
KNOXVILLE      CLOUDY    70  68  93 S10       29.91R
OAK RIDGE      LGT RAIN  71  69  93 VRB3      29.90S FOG
GATLINBURG     PTSUNNY   70  66  88 W8        29.90R
$$

TNZ083-085-099-031000-
SOUTHEAST TENNESSEE

CITY           SKY/WX    TMP DP  RH WIND       PRES   REMARKS
CHATTANOOGA      N/A     73  71  93 SE6       29.88F
$$

SKY/WX REPORTED AS FAIR MEANS FEW OR NO CLOUDS BELOW
12 THOUSAND FEET.



USA.gov is the U.S. government's official web portal to all federal, state and local government web resources and services.